QPF
0.10 0.13 0.13 0.12 0.11 0.12 0.12 0.11 0.09 0.09 0.08 0.07 0.07 0.07 0.07 0.07 0.06 0.06 0.05 0.04 0.03 0.03 0.02 0.01 0.01 0.01 0.00 0.00 0.00 0.00 0.00 0.00 0.00 0.00 0.00 0.00 0.00 0.00 0.00 0.00 0.00 0.00 0.00
0.10 0.12 0.14 0.13 0.13 0.11 0.11 0.11 0.09 0.09 0.11 0.11 0.11 0.10 0.07 0.08 0.10 0.09 0.07 0.06 0.05 0.04 0.03 0.03 0.03 0.02 0.02 0.01 0.01 0.01 0.01 0.01 0.00 0.01 0.00 0.00 0.01 0.01 0.01 0.01 0.00 0.00 0.00
0.11 0.11 0.14 0.16 0.14 0.13 0.13 0.13 0.12 0.12 0.12 0.13 0.13 0.14 0.11 0.10 0.10 0.09 0.09 0.08 0.06 0.05 0.04 0.04 0.03 0.03 0.03 0.03 0.03 0.03 0.03 0.02 0.03 0.02 0.01 0.02 0.01 0.02 0.04 0.03 0.01 0.02 0.00
0.09 0.13 0.14 0.15 0.14 0.13 0.13 0.13 0.12 0.12 0.11 0.13 0.13 0.14 0.14 0.11 0.11 0.10 0.10 0.10 0.11 0.10 0.08 0.07 0.06 0.05 0.05 0.05 0.06 0.05 0.06 0.06 0.06 0.05 0.03 0.03 0.03 0.03 0.06 0.06 0.05 0.05 0.02
0.10 0.12 0.13 0.16 0.14 0.13 0.12 0.12 0.12 0.11 0.10 0.11 0.14 0.16 0.16 0.13 0.11 0.12 0.13 0.13 0.15 0.15 0.14 0.12 0.10 0.09 0.07 0.07 0.05 0.06 0.06 0.06 0.06 0.06 0.05 0.05 0.06 0.08 0.08 0.08 0.08 0.06 0.03
0.10 0.11 0.12 0.14 0.13 0.13 0.14 0.15 0.16 0.14 0.15 0.16 0.18 0.18 0.17 0.12 0.11 0.10 0.10 0.13 0.16 0.18 0.19 0.19 0.15 0.11 0.08 0.06 0.03 0.03 0.04 0.05 0.06 0.08 0.08 0.08 0.10 0.10 0.10 0.09 0.09 0.08 0.05
0.10 0.12 0.15 0.17 0.17 0.17 0.18 0.22 0.21 0.21 0.20 0.19 0.18 0.17 0.16 0.14 0.11 0.09 0.08 0.10 0.12 0.15 0.17 0.17 0.14 0.10 0.08 0.06 0.05 0.05 0.04 0.03 0.03 0.04 0.06 0.07 0.10 0.11 0.11 0.09 0.10 0.09 0.06
0.12 0.14 0.17 0.19 0.21 0.22 0.21 0.20 0.17 0.17 0.17 0.15 0.15 0.16 0.16 0.13 0.11 0.08 0.07 0.07 0.10 0.10 0.10 0.10 0.10 0.09 0.06 0.06 0.06 0.06 0.06 0.06 0.06 0.05 0.05 0.05 0.06 0.07 0.09 0.08 0.08 0.07 0.04
0.11 0.13 0.16 0.17 0.17 0.15 0.14 0.14 0.13 0.13 0.12 0.10 0.10 0.10 0.10 0.09 0.08 0.07 0.06 0.06 0.08 0.08 0.07 0.07 0.07 0.07 0.07 0.05 0.05 0.06 0.07 0.08 0.07 0.07 0.06 0.05 0.04 0.04 0.05 0.05 0.06 0.07 0.05
0.09 0.10 0.13 0.14 0.13 0.11 0.10 0.11 0.11 0.10 0.08 0.08 0.08 0.07 0.07 0.06 0.04 0.04 0.03 0.04 0.06 0.08 0.07 0.07 0.08 0.07 0.05 0.04 0.05 0.06 0.08 0.09 0.08 0.07 0.08 0.08 0.07 0.06 0.07 0.05 0.06 0.06 0.07
0.10 0.11 0.13 0.15 0.14 0.13 0.11 0.09 0.08 0.07 0.06 0.07 0.06 0.05 0.04 0.03 0.02 0.02 0.02 0.02 0.03 0.03 0.03 0.03 0.04 0.06 0.05 0.05 0.05 0.05 0.06 0.05 0.05 0.05 0.06 0.07 0.07 0.06 0.07 0.07 0.07 0.07 0.07
0.08 0.08 0.09 0.11 0.12 0.10 0.09 0.07 0.07 0.06 0.04 0.03 0.02 0.02 0.01 0.01 0.01 0.01 0.01 0.01 0.01 0.01 0.02 0.02 0.02 0.03 0.02 0.01 0.01 0.02 0.02 0.01 0.01 0.02 0.02 0.03 0.03 0.03 0.03 0.03 0.03 0.03 0.03
0.04 0.05 0.05 0.04 0.04 0.05 0.04 0.04 0.04 0.03 0.03 0.02 0.02 0.01 0.01 0.00 0.00 0.01 0.00 0.01 0.01 0.01 0.01 0.01 0.01 0.01 0.00 0.00 0.00 0.00 0.00 0.00 0.00 0.00 0.01 0.01 0.01 0.01 0.01 0.02 0.02 0.02 0.03
0.03 0.03 0.03 0.03 0.02 0.02 0.02 0.02 0.01 0.02 0.02 0.02 0.02 0.02 0.01 0.00 0.00 0.00 0.00 0.00 0.00 0.00 0.00 0.00 0.00 0.00 0.00 0.00 0.00 0.00 0.00 0.00 0.00 0.00 0.01 0.00 0.00 0.01 0.01 0.01 0.01 0.02 0.02
0.02 0.01 0.01 0.02 0.02 0.02 0.01 0.01 0.01 0.01 0.01 0.01 0.01 0.01 0.01 0.01 0.01 0.01 0.01 0.01 0.00 0.00 0.00 0.00 0.00 0.00 0.00 0.00 0.00 0.00 0.01 0.01 0.01 0.01 0.01 0.01 0.01 0.01 0.01 0.01 0.01 0.01 0.01
0.00 0.00 0.00 0.00 0.00 0.00 0.00 0.00 0.00 0.00 0.00 0.00 0.01 0.01 0.02 0.02 0.03 0.02 0.02 0.02 0.01 0.00 0.00 0.00 0.00 0.00 0.00 0.01 0.01 0.01 0.01 0.01 0.01 0.01 0.01 0.01 0.01 0.01 0.01 0.01 0.01 0.01 0.01
0.00 0.00 0.00 0.00 0.00 0.00 0.00 0.00 0.00 0.00 0.00 0.00 0.00 0.00 0.00 0.01 0.01 0.01 0.01 0.01 0.00 0.00 0.00 0.00 0.00 0.00 0.01 0.01 0.01 0.01 0.01 0.01 0.01 0.01 0.01 0.00 0.00 0.01 0.01 0.01 0.01 0.01 0.01
0.00 0.00 0.00 0.00 0.00 0.00 0.00 0.00 0.00 0.00 0.00 0.00 0.00 0.00 0.00 0.00 0.00 0.00 0.00 0.00 0.00 0.00 0.00 0.00 0.01 0.01 0.01 0.01 0.01 0.01 0.01 0.01 0.01 0.01 0.01 0.01 0.01 0.01 0.01 0.01 0.01 0.01 0.01
0.01 0.01 0.01 0.01 0.01 0.01 0.01 0.00 0.00 0.00 0.00 0.00 0.00 0.00 0.00 0.00 0.00 0.00 0.00 0.00 0.00 0.00 0.00 0.00 0.00 0.00 0.00 0.01 0.01 0.01 0.01 0.01 0.01 0.01 0.01 0.01 0.01 0.01 0.01 0.01 0.01 0.02 0.02
0.01 0.01 0.01 0.01 0.01 0.01 0.01 0.00 0.00 0.00 0.00 0.00 0.00 0.00 0.00 0.00 0.00 0.00 0.00 0.00 0.00 0.00 0.00 0.00 0.00 0.00 0.00 0.00 0.00 0.00 0.00 0.01 0.01 0.01 0.01 0.01 0.01 0.01 0.01 0.02 0.02 0.03 0.03
0.00 0.00 0.00 0.00 0.00 0.00 0.00 0.00 0.00 0.00 0.00 0.00 0.00 0.00 0.00 0.00 0.00 0.00 0.00 0.00 0.00 0.00 0.00 0.00 0.00 0.00 0.00 0.00 0.00 0.00 0.00 0.00 0.01 0.01 0.01 0.01 0.02 0.02 0.02 0.02 0.02 0.03 0.03
0.00 0.00 0.00 0.00 0.00 0.00 0.00 0.00 0.00 0.00 0.00 0.00 0.00 0.00 0.00 0.00 0.00 0.00 0.00 0.00 0.00 0.00 0.00 0.00 0.00 0.00 0.00 0.00 0.00 0.00 0.00 0.01 0.01 0.01 0.01 0.01 0.01 0.01 0.02 0.02 0.02 0.03 0.03
0.00 0.00 0.00 0.00 0.00 0.00 0.00 0.00 0.00 0.00 0.00 0.00 0.00 0.00 0.00 0.00 0.00 0.00 0.00 0.00 0.00 0.00 0.00 0.00 0.00 0.00 0.00 0.00 0.00 0.00 0.00 0.00 0.00 0.00 0.00 0.00 0.00 0.00 0.01 0.01 0.02 0.02 0.03
0.00 0.00 0.00 0.00 0.00 0.00 0.00 0.00 0.00 0.00 0.00 0.00 0.00 0.00 0.00 0.00 0.00 0.00 0.00 0.00 0.00 0.00 0.00 0.00 0.00 0.00 0.00 0.00 0.00 0.00 0.00 0.00 0.00 0.00 0.00 0.00 0.00 0.01 0.01 0.02 0.02 0.02 0.03
0.00 0.00 0.01 0.00 0.00 0.00 0.00 0.00 0.00 0.00 0.00 0.00 0.00 0.00 0.00 0.00 0.00 0.00 0.00 0.00 0.00 0.00 0.00 0.00 0.00 0.00 0.00 0.00 0.00 0.00 0.00 0.00 0.00 0.01 0.01 0.01 0.01 0.01 0.02 0.03 0.03 0.03 0.03
0.00 0.00 0.00 0.00 0.00 0.00 0.00 0.00 0.00 0.00 0.00 0.00 0.00 0.00 0.00 0.00 0.00 0.00 0.00 0.00 0.00 0.00 0.00 0.00 0.00 0.00 0.00 0.00 0.00 0.00 0.00 0.00 0.00 0.01 0.01 0.01 0.01 0.02 0.03 0.03 0.02 0.02 0.02
MSLP
1009.52 1010.23 1010.96 1011.67 1012.30 1012.82 1013.22 1013.53 1013.79 1014.03 1014.28 1014.58 1014.92 1015.29 1015.66 1016.01 1016.31 1016.54 1016.71 1016.81 1016.86 1016.90 1016.94 1016.99 1017.06 1017.15 1017.24 1017.33 1017.39 1017.42 1017.43 1017.40 1017.34 1017.26 1017.17 1017.08 1016.98 1016.90 1016.83 1016.78 1016.76 1016.78 1016.84
1010.00 1010.63 1011.27 1011.88 1012.43 1012.88 1013.23 1013.51 1013.75 1013.98 1014.22 1014.51 1014.84 1015.19 1015.54 1015.88 1016.16 1016.38 1016.53 1016.62 1016.67 1016.69 1016.72 1016.76 1016.82 1016.90 1016.99 1017.09 1017.18 1017.25 1017.30 1017.32 1017.31 1017.27 1017.20 1017.11 1017.00 1016.88 1016.76 1016.64 1016.53 1016.46 1016.42
1010.40 1010.95 1011.51 1012.03 1012.49 1012.88 1013.20 1013.46 1013.70 1013.94 1014.20 1014.49 1014.82 1015.17 1015.51 1015.82 1016.08 1016.28 1016.41 1016.49 1016.53 1016.55 1016.58 1016.61 1016.68 1016.76 1016.87 1016.98 1017.09 1017.20 1017.27 1017.32 1017.35 1017.33 1017.28 1017.20 1017.09 1016.94 1016.77 1016.60 1016.42 1016.26 1016.13
1010.62 1011.12 1011.61 1012.06 1012.46 1012.80 1013.10 1013.38 1013.64 1013.92 1014.22 1014.55 1014.89 1015.25 1015.58 1015.87 1016.11 1016.29 1016.40 1016.47 1016.50 1016.53 1016.56 1016.61 1016.68 1016.78 1016.90 1017.02 1017.14 1017.25 1017.34 1017.40 1017.43 1017.42 1017.38 1017.30 1017.18 1017.02 1016.83 1016.62 1016.40 1016.18 1015.97
1010.63 1011.11 1011.55 1011.95 1012.31 1012.64 1012.95 1013.25 1013.57 1013.91 1014.28 1014.66 1015.05 1015.43 1015.76 1016.04 1016.27 1016.42 1016.52 1016.58 1016.61 1016.64 1016.69 1016.75 1016.84 1016.95 1017.07 1017.19 1017.29 1017.38 1017.45 1017.49 1017.50 1017.48 1017.42 1017.33 1017.21 1017.06 1016.87 1016.65 1016.41 1016.16 1015.91
1010.47 1010.93 1011.35 1011.73 1012.08 1012.42 1012.76 1013.12 1013.51 1013.93 1014.38 1014.84 1015.29 1015.70 1016.05 1016.33 1016.54 1016.68 1016.76 1016.81 1016.85 1016.89 1016.95 1017.03 1017.13 1017.24 1017.35 1017.44 1017.52 1017.56 1017.57 1017.56 1017.52 1017.46 1017.37 1017.27 1017.15 1017.00 1016.84 1016.64 1016.41 1016.16 1015.90
1010.20 1010.68 1011.10 1011.48 1011.83 1012.19 1012.58 1013.02 1013.49 1014.01 1014.55 1015.09 1015.60 1016.05 1016.42 1016.71 1016.91 1017.03 1017.11 1017.15 1017.19 1017.24 1017.31 1017.40 1017.50 1017.60 1017.69 1017.74 1017.76 1017.74 1017.68 1017.59 1017.48 1017.35 1017.23 1017.10 1016.97 1016.84 1016.69 1016.53 1016.34 1016.12 1015.87
1009.96 1010.46 1010.89 1011.28 1011.66 1012.06 1012.51 1013.01 1013.58 1014.19 1014.81 1015.43 1015.99 1016.48 1016.87 1017.16 1017.36 1017.47 1017.53 1017.57 1017.60 1017.65 1017.73 1017.82 1017.92 1018.00 1018.05 1018.06 1018.01 1017.91 1017.77 1017.59 1017.39 1017.19 1017.01 1016.85 1016.71 1016.58 1016.46 1016.33 1016.19 1016.01 1015.79
1009.86 1010.38 1010.84 1011.25 1011.66 1012.11 1012.61 1013.18 1013.82 1014.50 1015.20 1015.88 1016.48 1017.00 1017.40 1017.69 1017.88 1017.97 1018.02 1018.04 1018.07 1018.11 1018.18 1018.26 1018.34 1018.40 1018.42 1018.38 1018.27 1018.09 1017.86 1017.60 1017.32 1017.04 1016.80 1016.59 1016.43 1016.29 1016.19 1016.08 1015.97 1015.82 1015.64
1010.00 1010.55 1011.03 1011.47 1011.91 1012.40 1012.95 1013.57 1014.26 1015.00 1015.74 1016.45 1017.08 1017.61 1018.01 1018.29 1018.45 1018.53 1018.56 1018.56 1018.56 1018.59 1018.64 1018.71 1018.77 1018.80 1018.78 1018.70 1018.53 1018.30 1018.00 1017.67 1017.32 1016.99 1016.69 1016.43 1016.23 1016.07 1015.95 1015.85 1015.74 1015.62 1015.45
1010.42 1010.99 1011.49 1011.96 1012.44 1012.95 1013.54 1014.19 1014.91 1015.67 1016.43 1017.14 1017.78 1018.29 1018.68 1018.94 1019.08 1019.13 1019.13 1019.10 1019.08 1019.08 1019.10 1019.14 1019.18 1019.18 1019.14 1019.03 1018.84 1018.57 1018.24 1017.87 1017.48 1017.10 1016.75 1016.45 1016.20 1016.00 1015.84 1015.72 1015.59 1015.45 1015.28
1011.10 1011.69 1012.21 1012.70 1013.20 1013.74 1014.34 1015.00 1015.73 1016.48 1017.23 1017.93 1018.54 1019.03 1019.39 1019.62 1019.73 1019.75 1019.72 1019.65 1019.60 1019.57 1019.56 1019.56 1019.57 1019.56 1019.50 1019.38 1019.19 1018.92 1018.59 1018.21 1017.81 1017.41 1017.04 1016.69 1016.40 1016.15 1015.94 1015.75 1015.58 1015.39 1015.19
1011.97 1012.56 1013.09 1013.60 1014.11 1014.66 1015.26 1015.92 1016.63 1017.36 1018.08 1018.74 1019.32 1019.77 1020.10 1020.29 1020.37 1020.36 1020.29 1020.20 1020.11 1020.03 1019.99 1019.96 1019.95 1019.92 1019.86 1019.75 1019.58 1019.34 1019.05 1018.70 1018.33 1017.94 1017.55 1017.19 1016.85 1016.54 1016.26 1016.00 1015.75 1015.49 1015.22
1012.91 1013.49 1014.03 1014.54 1015.06 1015.60 1016.19 1016.83 1017.50 1018.19 1018.87 1019.49 1020.02 1020.44 1020.73 1020.90 1020.96 1020.92 1020.82 1020.70 1020.57 1020.46 1020.38 1020.33 1020.29 1020.26 1020.21 1020.12 1020.00 1019.82 1019.59 1019.30 1018.98 1018.63 1018.26 1017.89 1017.52 1017.15 1016.80 1016.45 1016.11 1015.76 1015.41
1013.81 1014.37 1014.89 1015.40 1015.91 1016.44 1017.00 1017.60 1018.24 1018.88 1019.50 1020.08 1020.57 1020.96 1021.23 1021.38 1021.42 1021.37 1021.27 1021.12 1020.97 1020.83 1020.72 1020.64 1020.59 1020.56 1020.53 1020.48 1020.42 1020.31 1020.16 1019.95 1019.71 1019.41 1019.08 1018.71 1018.32 1017.91 1017.49 1017.06 1016.63 1016.18 1015.73
1014.56 1015.09 1015.58 1016.06 1016.55 1017.05 1017.58 1018.15 1018.74 1019.33 1019.91 1020.45 1020.91 1021.28 1021.54 1021.69 1021.73 1021.69 1021.58 1021.44 1021.27 1021.12 1020.99 1020.90 1020.84 1020.82 1020.81 1020.81 1020.80 1020.77 1020.70 1020.59 1020.42 1020.19 1019.90 1019.56 1019.16 1018.72 1018.25 1017.75 1017.22 1016.68 1016.14
1015.14 1015.60 1016.05 1016.50 1016.95 1017.42 1017.91 1018.44 1018.99 1019.54 1020.08 1020.59 1021.03 1021.40 1021.66 1021.82 1021.89 1021.87 1021.78 1021.64 1021.49 1021.33 1021.20 1021.11 1021.05 1021.04 1021.06 1021.10 1021.15 1021.18 1021.19 1021.15 1021.05 1020.89 1020.65 1020.33 1019.93 1019.48 1018.96 1018.40 1017.80 1017.18 1016.54
1015.53 1015.92 1016.31 1016.71 1017.12 1017.56 1018.02 1018.51 1019.02 1019.54 1020.06 1020.55 1020.98 1021.35 1021.63 1021.81 1021.91 1021.92 1021.87 1021.76 1021.63 1021.49 1021.37 1021.29 1021.24 1021.25 1021.29 1021.36 1021.45 1021.54 1021.60 1021.62 1021.57 1021.45 1021.24 1020.93 1020.54 1020.07 1019.52 1018.91 1018.26 1017.57 1016.85
1015.78 1016.10 1016.43 1016.77 1017.14 1017.54 1017.97 1018.43 1018.92 1019.42 1019.92 1020.40 1020.83 1021.20 1021.51 1021.72 1021.86 1021.91 1021.89 1021.83 1021.73 1021.63 1021.53 1021.47 1021.44 1021.46 1021.52 1021.62 1021.73 1021.84 1021.93 1021.97 1021.94 1021.83 1021.63 1021.32 1020.92 1020.43 1019.85 1019.21 1018.51 1017.76 1016.98
1015.96 1016.21 1016.48 1016.78 1017.12 1017.48 1017.89 1018.33 1018.80 1019.29 1019.78 1020.25 1020.68 1021.07 1021.39 1021.63 1021.80 1021.89 1021.92 1021.89 1021.84 1021.77 1021.71 1021.68 1021.68 1021.71 1021.79 1021.89 1022.00 1022.11 1022.19 1022.21 1022.17 1022.04 1021.81 1021.48 1021.05 1020.53 1019.92 1019.24 1018.51 1017.72 1016.89
1016.15 1016.34 1016.56 1016.83 1017.14 1017.49 1017.88 1018.32 1018.77 1019.25 1019.73 1020.20 1020.63 1021.01 1021.34 1021.60 1021.79 1021.91 1021.98 1021.99 1021.98 1021.96 1021.93 1021.93 1021.95 1022.00 1022.08 1022.17 1022.27 1022.34 1022.38 1022.36 1022.27 1022.08 1021.80 1021.41 1020.93 1020.37 1019.72 1019.01 1018.24 1017.42 1016.56
1016.40 1016.55 1016.75 1016.99 1017.29 1017.64 1018.02 1018.45 1018.91 1019.38 1019.85 1020.30 1020.72 1021.10 1021.42 1021.68 1021.88 1022.02 1022.11 1022.15 1022.17 1022.18 1022.20 1022.22 1022.26 1022.32 1022.40 1022.47 1022.53 1022.56 1022.53 1022.43 1022.26 1021.99 1021.62 1021.16 1020.61 1019.98 1019.29 1018.54 1017.74 1016.90 1016.03
1016.76 1016.89 1017.07 1017.31 1017.61 1017.96 1018.35 1018.77 1019.22 1019.69 1020.14 1020.58 1020.98 1021.33 1021.64 1021.88 1022.07 1022.21 1022.31 1022.37 1022.41 1022.45 1022.49 1022.54 1022.60 1022.66 1022.72 1022.76 1022.77 1022.73 1022.63 1022.44 1022.16 1021.79 1021.32 1020.77 1020.13 1019.44 1018.69 1017.91 1017.09 1016.24 1015.37
1017.21 1017.34 1017.53 1017.77 1018.07 1018.43 1018.82 1019.25 1019.69 1020.14 1020.58 1020.99 1021.36 1021.68 1021.96 1022.18 1022.34 1022.47 1022.56 1022.63 1022.68 1022.74 1022.80 1022.86 1022.92 1022.98 1023.02 1023.03 1022.98 1022.87 1022.68 1022.39 1022.01 1021.53 1020.96 1020.31 1019.60 1018.84 1018.04 1017.22 1016.39 1015.55 1014.70
1017.75 1017.89 1018.08 1018.33 1018.64 1018.99 1019.38 1019.80 1020.24 1020.67 1021.08 1021.46 1021.80 1022.09 1022.33 1022.52 1022.66 1022.76 1022.84 1022.91 1022.96 1023.02 1023.09 1023.15 1023.22 1023.26 1023.28 1023.25 1023.15 1022.97 1022.69 1022.32 1021.84 1021.27 1020.60 1019.87 1019.08 1018.27 1017.43 1016.59 1015.75 1014.92 1014.10
1018.32 1018.48 1018.68 1018.93 1019.23 1019.57 1019.95 1020.36 1020.78 1021.19 1021.58 1021.93 1022.24 1022.50 1022.71 1022.86 1022.98 1023.06 1023.13 1023.18 1023.23 1023.29 1023.35 1023.42 1023.47 1023.50 1023.49 1023.42 1023.28 1023.04 1022.70 1022.25 1021.70 1021.05 1020.31 1019.51 1018.67 1017.81 1016.94 1016.09 1015.26 1014.45 1013.67
Thickness
5748 5746 5745 5743 5743 5741 5740 5739 5739 5738 5738 5735 5734 5732 5730 5728 5727 5724 5723 5725 5723 5722 5723 5722 5720 5720 5720 5721 5721 5720 5718 5716 5709 5713 5719 5721 5719 5716 5713 5712 5710 5709 5707
5748 5746 5744 5743 5742 5740 5738 5737 5737 5735 5734 5733 5731 5728 5727 5726 5724 5722 5720 5721 5719 5718 5718 5717 5716 5717 5715 5714 5713 5713 5713 5713 5708 5705 5708 5711 5711 5711 5709 5707 5706 5706 5706
5749 5746 5743 5741 5740 5737 5736 5735 5734 5732 5730 5729 5727 5725 5723 5722 5721 5719 5717 5717 5716 5715 5714 5713 5711 5710 5708 5707 5707 5706 5706 5707 5705 5700 5700 5703 5704 5704 5702 5701 5701 5700 5700
5749 5744 5740 5739 5737 5735 5734 5732 5729 5727 5725 5724 5722 5721 5719 5718 5716 5715 5714 5712 5710 5710 5710 5708 5707 5705 5703 5701 5700 5699 5698 5697 5696 5694 5693 5693 5694 5697 5695 5691 5689 5691 5692
5747 5742 5739 5738 5736 5733 5730 5728 5725 5722 5721 5719 5717 5715 5714 5712 5709 5709 5708 5707 5705 5704 5703 5702 5700 5699 5697 5695 5693 5691 5690 5688 5686 5685 5684 5684 5684 5683 5683 5683 5680 5681 5683
5746 5741 5739 5735 5731 5728 5725 5723 5720 5718 5716 5713 5711 5707 5704 5702 5700 5701 5701 5700 5699 5697 5695 5693 5692 5690 5689 5686 5685 5683 5680 5678 5676 5674 5673 5672 5672 5673 5672 5672 5670 5667 5667
5742 5739 5735 5731 5726 5723 5721 5717 5714 5711 5708 5705 5702 5698 5694 5690 5691 5692 5692 5692 5691 5688 5686 5684 5683 5681 5678 5677 5676 5674 5672 5669 5666 5664 5662 5662 5661 5661 5659 5658 5657 5655 5655
5735 5732 5729 5725 5721 5717 5713 5709 5705 5702 5698 5695 5691 5688 5684 5681 5681 5683 5683 5683 5680 5677 5674 5672 5670 5666 5665 5663 5664 5664 5662 5660 5658 5655 5653 5652 5651 5649 5647 5645 5645 5645 5647
5726 5724 5722 5718 5714 5709 5703 5699 5695 5691 5687 5684 5681 5677 5674 5670 5671 5672 5673 5672 5668 5664 5662 5658 5657 5653 5651 5651 5652 5651 5649 5647 5646 5644 5642 5640 5638 5637 5634 5633 5632 5630 5631
5716 5714 5711 5709 5704 5699 5694 5690 5685 5681 5677 5674 5670 5666 5663 5659 5658 5659 5660 5660 5656 5652 5648 5644 5641 5639 5637 5636 5635 5634 5632 5630 5629 5629 5628 5627 5626 5625 5623 5619 5618 5615 5615
5704 5702 5698 5695 5691 5688 5684 5681 5677 5672 5667 5663 5659 5654 5651 5648 5646 5646 5645 5644 5642 5639 5636 5633 5629 5625 5624 5621 5619 5618 5615 5613 5613 5614 5614 5613 5612 5611 5608 5605 5603 5600 5598
5693 5690 5686 5684 5682 5677 5673 5669 5666 5662 5658 5653 5649 5644 5640 5637 5633 5632 5630 5628 5626 5625 5622 5620 5616 5613 5611 5608 5606 5604 5601 5599 5599 5599 5598 5596 5594 5592 5590 5589 5587 5586 5584
5681 5677 5674 5671 5667 5664 5661 5657 5655 5652 5649 5645 5640 5636 5630 5625 5620 5617 5616 5615 5613 5611 5608 5605 5603 5600 5597 5595 5592 5589 5586 5585 5583 5581 5578 5576 5574 5572 5571 5570 5569 5568 5568
5668 5664 5661 5657 5653 5648 5647 5643 5640 5638 5636 5632 5627 5623 5618 5611 5605 5602 5601 5600 5598 5596 5593 5590 5588 5586 5582 5578 5577 5574 5570 5567 5563 5560 5557 5555 5553 5551 5549 5548 5547 5547 5547
5657 5653 5649 5643 5637 5631 5625 5620 5619 5613 5614 5613 5609 5605 5602 5595 5586 5583 5582 5582 5578 5576 5573 5576 5576 5573 5568 5564 5560 5556 5551 5546 5542 5538 5535 5532 5530 5528 5527 5525 5524 5524 5524
5646 5643 5639 5635 5629 5623 5615 5606 5598 5597 5596 5594 5592 5588 5581 5577 5574 5571 5568 5565 5563 5560 5558 5559 5556 5551 5545 5540 5536 5531 5527 5523 5518 5515 5512 5510 5507 5505 5504 5503 5501 5501 5502
5636 5633 5631 5627 5622 5617 5611 5603 5593 5584 5580 5578 5576 5573 5569 5564 5561 5557 5554 5551 5549 5545 5542 5540 5534 5528 5522 5517 5512 5508 5503 5500 5497 5494 5491 5489 5487 5485 5484 5483 5481 5481 5482
5625 5622 5620 5617 5614 5610 5605 5600 5593 5585 5577 5569 5562 5558 5555 5551 5547 5543 5539 5536 5536 5531 5525 5519 5513 5507 5502 5496 5491 5487 5484 5481 5478 5475 5473 5471 5469 5468 5467 5466 5465 5464 5464
5613 5611 5609 5607 5605 5600 5596 5592 5586 5580 5573 5564 5555 5547 5541 5538 5533 5529 5523 5521 5519 5512 5506 5500 5494 5489 5483 5478 5473 5470 5467 5464 5462 5459 5457 5455 5453 5452 5451 5451 5450 5450 5449
5599 5597 5597 5597 5594 5589 5585 5580 5574 5568 5561 5554 5546 5538 5531 5528 5524 5518 5512 5507 5501 5495 5488 5482 5477 5473 5468 5463 5459 5455 5452 5450 5447 5444 5442 5440 5439 5439 5439 5439 5439 5438 5439
5594 5589 5584 5585 5580 5576 5571 5566 5559 5553 5547 5540 5532 5522 5514 5514 5510 5503 5497 5491 5485 5479 5472 5467 5463 5459 5454 5449 5445 5441 5439 5437 5433 5430 5428 5427 5427 5427 5428 5429 5430 5430 5431
5585 5582 5577 5572 5565 5559 5556 5551 5545 5539 5532 5526 5518 5510 5502 5499 5494 5487 5481 5475 5470 5464 5459 5453 5449 5445 5440 5436 5433 5430 5427 5422 5419 5416 5415 5416 5417 5418 5420 5421 5422 5423 5425
5575 5571 5565 5558 5553 5544 5542 5537 5531 5524 5518 5512 5505 5499 5492 5486 5480 5473 5467 5462 5456 5451 5446 5442 5438 5434 5429 5425 5422 5418 5412 5408 5405 5405 5405 5407 5408 5410 5412 5415 5417 5419 5421
5564 5559 5553 5547 5541 5535 5530 5523 5516 5511 5504 5498 5491 5485 5479 5473 5467 5461 5455 5449 5444 5440 5435 5432 5428 5424 5420 5416 5411 5407 5402 5399 5397 5397 5398 5398 5401 5404 5407 5410 5413 5416 5418
5551 5545 5540 5534 5528 5522 5516 5509 5502 5496 5490 5484 5477 5471 5466 5461 5455 5450 5444 5439 5434 5431 5426 5423 5419 5415 5411 5407 5402 5398 5395 5394 5393 5392 5392 5394 5397 5400 5404 5408 5411 5414 5417
5538 5532 5527 5521 5515 5509 5502 5495 5489 5483 5477 5471 5465 5459 5454 5450 5445 5439 5434 5429 5425 5422 5418 5414 5411 5407 5403 5398 5394 5391 5390 5389 5389 5389 5389 5391 5395 5399 5403 5406 5409 5411 5415